Torna al catalogo

SL-12 R/B

AUX MOTOR

AttivoHEO
NORAD 15054·ROCKET BODY·🇷🇺 Russia

Lanciato May 19, 1984 da Baikonur Cosmodrome

Loading…

Prossimi Passaggi (prossime 24 ore)

TLE

AggiornatoSource: Space-Track

Epoca: Sep 14, 2026, 09:32 UTC

1 15054U 84047H   26257.39743147  .00004042  00000-0  54209-3 0  9991
2 15054  52.0188  31.2951 4670383 262.7107  43.9464  6.19095598698845

Traccia SL-12 R/B in tempo reale con AllMySat

Download on the App Store